Theta_e
322 319 319 318 316 312 316 316 316 319 318 318 318 319 322 322 337 338 338 338 327 325 329 334 336 339 336 334 334 333 333 333 335 335 336 335 335 335 334 333 332 329 325 320 317 314 314 312 311
322 321 319 313 315 314 312 315 317 317 318 316 317 318 319 320 320 334 340 336 326 323 327 331 334 332 332 329 330 330 330 331 331 329 330 330 330 329 329 327 324 320 316 315 314 313 312 312 312
324 326 320 319 313 314 314 314 316 318 316 317 319 318 320 329 340 339 338 334 328 323 327 331 333 327 328 327 326 327 327 328 327 327 328 327 327 325 324 321 318 316 315 315 314 314 315 315 317
324 325 318 321 319 317 316 318 315 315 317 317 318 319 319 336 342 342 339 333 328 324 325 329 332 326 324 323 325 325 324 325 325 326 325 325 325 323 320 318 316 316 316 314 315 316 317 317 318
326 322 325 322 320 317 316 316 315 317 318 317 318 320 322 342 344 342 337 335 330 329 325 329 333 326 324 322 325 323 323 323 323 323 324 324 323 322 319 317 316 316 315 314 315 316 318 318 319
328 320 325 326 321 320 320 318 319 319 318 319 323 323 329 343 342 338 336 334 332 330 326 328 336 326 323 324 323 322 322 322 321 322 323 323 322 321 319 317 316 316 316 315 315 316 318 320 321
326 324 327 326 325 325 325 324 325 322 323 325 322 327 329 335 341 337 335 334 331 332 331 333 335 325 325 325 324 322 322 321 321 321 321 321 321 321 321 318 316 316 316 315 316 317 318 320 321
318 326 331 329 327 328 327 325 324 324 325 323 323 326 326 337 338 337 335 334 335 334 332 332 339 333 325 325 324 324 322 321 321 321 321 321 321 322 322 321 317 316 316 316 316 317 318 320 320
315 319 325 329 329 329 326 325 324 322 324 321 324 325 324 343 337 336 336 336 335 335 335 331 337 330 325 324 325 326 327 325 324 324 324 323 325 325 326 323 320 317 316 316 315 316 317 319 322
313 314 319 321 325 325 323 323 322 322 321 321 322 321 322 341 343 339 336 337 336 334 334 331 332 326 325 322 325 325 329 329 329 328 327 328 326 325 326 325 324 320 317 317 316 315 317 321 323
310 313 318 320 319 319 319 318 318 318 319 322 319 319 320 321 332 337 340 334 334 331 331 330 329 327 322 321 323 324 328 329 328 328 329 332 332 330 330 326 325 323 319 318 317 316 316 319 322
310 310 312 312 312 312 314 314 315 315 316 316 317 317 319 321 322 330 337 339 334 332 331 333 331 329 324 322 322 323 324 327 328 330 332 331 330 332 330 327 326 323 320 319 318 317 317 317 319
308 308 309 309 309 309 310 311 313 313 314 315 316 317 319 319 320 325 334 339 337 335 335 332 334 329 323 322 321 322 324 322 324 326 325 329 329 328 327 325 325 323 319 320 319 319 318 318 318
308 308 308 308 309 309 310 311 312 314 315 315 316 317 317 318 319 327 334 336 340 338 334 330 331 329 324 322 323 320 321 320 320 320 321 323 322 322 323 323 322 321 319 320 321 319 319 319 319
308 308 306 307 308 309 309 311 312 313 315 315 315 314 315 316 318 319 326 334 337 341 340 330 328 329 326 324 321 323 321 322 321 320 321 320 321 321 321 322 321 321 319 320 323 322 322 322 322
306 303 304 306 307 308 310 310 312 309 311 312 313 313 313 313 314 317 319 324 335 338 344 343 337 333 330 325 322 322 322 322 323 324 323 325 324 323 324 324 323 323 322 322 323 323 323 324 324
304 307 307 307 307 307 309 310 310 309 309 310 310 312 311 310 311 312 314 316 322 335 341 346 347 344 339 335 331 326 330 327 334 333 334 339 333 329 327 326 326 327 328 328 328 327 325 325 326
308 309 308 308 308 308 307 307 308 309 309 309 309 310 310 310 310 311 313 315 316 319 331 337 340 348 347 344 341 340 340 339 337 336 335 336 339 336 334 335 334 334 334 333 333 331 330 328 328
308 309 309 309 309 309 309 309 309 308 307 308 308 309 310 310 309 311 312 313 314 316 320 326 333 337 347 341 337 337 337 337 337 337 337 340 341 339 339 338 339 339 337 338 337 334 331 331 331
308 308 310 310 310 310 309 309 309 308 308 308 308 308 308 308 309 310 310 311 313 314 317 321 325 331 334 342 340 339 338 337 338 340 342 342 342 342 341 342 342 341 339 337 337 335 332 332 332
309 311 311 312 312 309 308 307 308 308 308 308 307 306 306 307 307 308 309 310 311 312 313 315 318 323 329 333 336 340 342 342 341 341 342 343 344 343 343 344 344 343 341 340 339 337 335 333 333
309 309 312 312 309 308 309 309 306 308 308 307 306 305 305 304 307 308 310 310 311 314 314 314 315 317 319 325 332 338 341 342 339 338 341 342 344 344 344 346 345 343 343 342 340 339 337 334 334
307 311 311 310 308 309 310 309 306 305 306 306 308 308 305 309 310 310 310 310 312 314 316 316 315 315 317 320 324 329 336 337 336 339 342 343 342 342 343 343 342 343 344 344 342 340 337 335 335
309 309 307 305 306 309 308 308 307 306 306 306 307 308 311 311 310 309 309 310 311 313 316 316 319 319 317 322 324 326 334 336 339 340 341 342 340 341 341 339 341 340 341 342 341 340 339 338 336
306 305 307 307 307 309 307 309 308 308 309 308 308 309 310 309 309 308 307 307 309 311 315 315 318 317 320 319 324 328 333 337 338 338 339 339 337 336 334 333 331 334 337 339 340 341 340 339 337
306 305 307 311 311 308 307 310 309 309 309 310 312 311 310 310 307 306 306 307 309 310 313 315 314 314 318 323 320 324 333 338 338 337 338 337 334 332 330 330 334 336 341 342 342 342 341 341 341
309 308 306 308 308 307 309 309 309 309 309 312 312 311 310 307 306 305 306 307 308 310 312 314 312 315 319 323 325 322 328 333 335 337 337 336 332 329 330 334 334 342 344 343 343 342 342 341 340
308 308 310 308 315 314 310 310 310 309 310 308 309 308 307 307 307 307 306 308 310 310 312 313 312 315 320 324 329 323 321 328 332 334 334 332 329 330 333 335 340 345 345 344 343 342 341 341 339
307 307 309 307 311 313 313 310 307 307 307 307 309 309 307 307 308 307 308 309 310 310 311 312 312 317 321 325 331 325 319 325 329 332 331 330 331 333 336 339 345 345 345 344 343 341 341 339 338
307 308 308 314 312 311 312 312 307 307 308 308 308 309 308 308 308 308 308 309 309 310 311 310 314 318 323 328 333 325 319 325 329 330 330 332 333 337 339 344 345 345 343 341 341 340 338 338 336
Wind_Speed
11 3 2 3 3 4 2 6 3 4 6 3 2 4 7 5 6 6 8 34 41 41 45 44 44 40 36 34 33 33 32 30 28 27 26 25 24 23 21 18 16 15 13 12 11 10 8 7 7
7 1 3 2 4 1 4 4 5 6 3 8 7 4 5 13 8 7 6 33 47 48 48 47 46 43 39 37 35 33 32 30 29 27 26 24 23 22 20 19 17 15 13 12 11 10 9 8 8
4 2 3 3 3 6 5 5 4 3 8 4 4 6 4 5 4 4 10 40 45 50 48 47 47 45 42 39 37 35 32 31 29 28 27 24 23 22 21 19 17 14 12 11 10 9 9 9 8
1 3 4 4 9 4 4 2 4 7 5 2 4 9 6 5 4 5 9 42 48 52 49 47 47 46 44 41 38 35 33 31 29 28 26 25 24 22 20 18 16 14 12 11 10 9 8 8 8
2 2 2 2 5 3 3 5 3 6 4 7 4 6 4 4 11 6 27 37 47 50 48 47 46 44 44 42 40 37 34 32 31 29 27 25 24 22 20 18 15 14 13 11 10 9 9 8 8
2 3 2 5 4 2 3 6 3 3 2 8 9 7 3 13 8 11 34 34 42 46 46 45 44 43 42 42 40 38 36 33 31 30 28 25 23 22 20 18 16 14 13 12 12 11 9 9 8
4 3 5 5 1 4 2 3 2 4 4 4 7 5 6 10 7 10 26 30 40 42 42 42 42 42 40 39 38 37 35 34 32 30 28 26 24 22 21 19 17 16 14 12 12 12 11 10 9
4 4 3 5 5 4 3 4 4 4 4 8 4 6 8 17 10 16 21 25 29 36 39 40 38 40 41 39 37 36 34 33 31 30 28 26 24 23 21 19 17 16 15 14 13 12 11 11 11
3 1 4 5 4 2 5 5 2 3 4 5 3 2 6 6 7 14 17 19 23 29 35 39 38 40 40 39 37 35 33 32 30 28 27 25 25 24 22 20 18 17 16 14 15 14 13 13 12
3 4 7 3 0 4 11 5 8 4 7 3 6 8 14 2 5 2 7 16 25 30 35 39 40 41 40 38 36 35 33 32 31 30 29 28 28 26 24 21 20 19 17 16 16 16 15 15 15
2 4 2 0 1 2 5 17 2 6 11 1 9 15 13 7 8 6 6 15 32 41 37 41 41 42 41 39 36 34 33 31 31 30 29 28 27 24 24 23 23 22 20 21 20 20 20 19 18
1 3 3 2 6 5 5 9 11 13 11 6 7 11 6 9 9 7 10 16 17 29 39 38 43 42 40 38 36 34 33 31 30 30 28 29 27 25 26 25 25 24 22 23 23 23 22 21 21
3 1 3 6 6 4 7 10 16 18 10 11 10 10 11 9 9 11 13 15 23 23 27 38 40 41 41 38 36 35 33 33 32 31 30 31 28 28 28 28 27 26 24 26 25 24 24 23 23
2 2 6 5 7 4 7 11 10 1 8 8 8 7 9 10 10 4 10 13 20 28 36 37 38 41 41 40 38 38 35 34 34 35 34 32 33 31 31 32 31 29 27 27 27 25 26 25 24
2 4 6 5 5 6 7 13 12 12 5 8 8 9 9 10 12 10 13 15 23 30 33 34 41 45 42 42 40 39 37 38 37 37 36 36 36 34 34 35 33 33 27 29 28 26 26 27 25
3 4 4 5 2 5 6 7 4 6 4 7 6 7 8 9 9 22 24 21 18 26 27 32 38 41 42 43 42 42 43 42 36 35 38 36 38 36 35 35 35 33 27 28 28 28 27 28 25
5 0 1 7 1 4 2 5 3 6 5 6 5 2 5 8 9 17 22 23 21 21 25 25 29 33 38 41 35 39 32 39 31 40 31 30 35 32 32 32 34 30 26 28 26 27 26 28 26
3 3 4 4 5 5 9 6 8 7 7 8 7 6 5 6 8 16 18 20 23 22 25 27 26 32 34 35 31 30 32 36 33 36 32 39 38 32 28 31 31 26 26 26 26 27 25 26 23
2 3 4 4 4 6 9 10 9 9 7 7 7 7 6 6 7 13 16 18 19 20 21 26 33 33 34 32 28 29 32 35 35 33 34 36 35 30 28 28 28 27 30 27 27 26 25 25 20
3 2 3 5 6 5 8 18 12 7 6 6 5 7 8 6 5 8 16 19 18 24 21 23 28 37 39 38 40 34 27 31 37 33 34 34 32 28 26 28 29 29 30 28 26 26 20 22 19
1 3 2 5 5 5 7 12 5 4 4 5 6 6 6 8 8 7 8 17 18 20 22 21 25 29 34 37 38 29 30 27 28 32 37 38 32 30 27 29 29 30 29 29 28 28 27 17 19
3 4 3 4 6 4 5 9 5 6 11 7 7 7 8 8 5 4 6 10 19 20 21 21 19 24 33 36 33 33 27 21 27 35 36 40 32 28 32 33 30 30 29 29 28 26 26 22 17
6 1 3 2 4 3 3 3 2 8 10 12 16 17 8 8 6 8 7 12 22 20 21 20 18 21 24 32 37 34 32 30 33 33 34 31 27 33 34 32 31 31 31 30 28 25 24 25 20
3 2 3 3 2 1 4 6 6 3 4 6 5 6 6 7 8 8 12 13 16 21 19 18 18 16 19 26 28 33 34 32 30 32 32 31 34 31 30 30 28 29 29 29 27 25 23 23 26
4 5 4 4 2 5 4 0 14 10 19 15 12 9 8 7 8 8 9 9 12 20 24 21 17 22 17 19 22 27 38 35 39 36 37 35 32 29 30 27 26 26 26 28 25 23 22 22 23
6 7 4 5 3 9 4 7 8 5 6 6 6 7 8 9 7 8 9 8 18 17 24 25 26 26 23 19 19 24 36 36 37 37 40 39 35 35 27 23 22 22 22 23 22 21 20 21 20
3 4 4 3 2 2 5 6 13 15 13 8 9 8 10 9 9 9 9 11 18 22 23 28 29 29 25 24 21 24 30 36 41 43 39 38 32 23 23 21 19 19 19 21 21 21 19 18 18
5 5 1 2 4 5 4 10 11 7 6 8 10 10 8 7 11 13 8 10 20 24 29 28 28 28 26 25 25 26 29 33 37 37 34 31 25 21 23 21 19 19 21 21 21 18 16 17 17
1 2 3 3 4 3 7 9 6 9 10 9 11 10 8 10 15 15 15 15 21 24 27 30 28 27 25 25 27 27 30 33 34 36 34 27 23 22 23 21 21 24 24 22 19 18 19 17 17
5 5 7 3 4 4 5 19 8 7 9 6 12 10 11 13 15 15 16 13 17 19 23 25 28 26 27 27 27 28 30 30 29 31 28 24 22 24 22 22 26 26 23 21 21 22 18 18 19
Wind_Direction
334 356 113 42 68 66 246 260 281 313 344 184 179 199 224 201 172 215 311 177 175 173 175 168 165 168 166 163 161 157 155 154 155 154 156 157 158 161 162 161 161 161 161 159 161 157 151 143 134
339 339 78 82 101 127 261 240 235 223 277 306 279 198 208 256 217 275 116 171 173 173 174 170 168 166 168 166 164 161 158 158 158 158 160 161 161 162 163 162 163 161 159 156 155 149 144 138 133
323 313 93 106 139 200 210 212 229 252 266 245 287 227 239 251 282 246 194 175 172 172 175 172 171 167 167 168 167 164 162 162 162 162 164 164 166 167 166 166 165 162 160 157 153 150 144 140 137
298 359 42 103 243 256 215 208 213 327 313 216 250 296 298 286 286 265 203 175 171 173 176 175 175 170 168 169 169 167 167 167 166 167 169 170 173 173 172 171 169 166 168 166 164 159 157 153 151
121 47 94 250 249 251 231 256 267 286 274 278 295 281 242 21 311 209 167 169 168 172 176 178 178 176 171 171 172 171 172 173 171 173 175 178 178 180 178 177 178 177 177 175 176 176 177 172 170
54 101 104 236 249 279 277 235 218 223 285 284 333 289 315 21 349 147 160 165 171 172 176 180 183 181 176 176 175 176 177 178 178 179 182 184 186 187 186 186 187 190 189 189 184 189 193 191 188
143 123 212 257 162 330 273 298 272 325 313 308 299 341 299 0 104 140 154 164 172 176 178 182 185 185 183 181 181 182 183 185 186 187 189 191 194 196 195 195 196 198 200 203 202 201 200 204 206
129 134 215 223 225 231 278 329 295 36 300 306 352 1 342 332 127 148 151 159 172 177 180 185 190 189 188 187 188 189 191 192 194 195 197 199 201 202 205 203 205 208 209 210 217 216 216 219 220
140 120 217 239 201 243 298 4 309 324 270 337 312 321 314 50 104 129 139 147 171 181 186 189 195 193 192 191 194 195 198 201 202 203 206 206 208 209 211 212 214 216 221 224 228 230 231 233 233
159 180 213 215 290 332 309 287 318 326 317 295 306 313 335 245 163 174 271 162 176 191 194 195 198 198 197 196 198 200 203 206 209 210 212 214 215 216 218 217 222 224 228 231 237 239 240 239 239
151 198 219 49 89 299 273 298 308 305 290 152 318 310 324 330 280 211 212 226 191 197 197 201 201 203 200 201 202 206 208 213 215 218 219 223 226 223 224 224 227 230 231 235 234 239 237 243 244
300 253 343 333 353 319 275 307 284 262 274 283 309 290 291 301 301 268 210 214 231 205 204 208 206 205 202 204 205 210 213 218 224 224 227 229 231 233 233 233 232 235 237 240 239 242 244 245 250
169 4 334 306 285 258 278 273 275 272 284 271 260 274 280 285 279 281 250 210 210 220 212 210 212 209 205 207 209 213 219 219 227 231 232 237 235 236 241 241 240 240 243 245 245 246 248 249 251
304 273 283 252 248 234 247 261 247 325 11 314 290 291 298 293 280 273 233 221 208 211 220 211 222 216 212 210 214 216 221 224 228 234 236 239 243 241 242 245 245 245 247 251 251 252 255 256 256
264 294 307 243 242 231 200 261 254 283 212 242 269 277 276 279 301 283 275 242 228 220 225 215 222 222 218 217 218 224 224 229 230 235 240 241 244 246 245 247 248 247 250 253 252 253 257 258 257
38 41 12 288 353 270 171 263 19 26 43 335 358 350 343 323 321 316 314 301 249 230 220 224 216 220 224 225 221 227 230 231 232 243 245 249 249 247 247 249 252 252 252 253 253 253 254 255 255
3 135 261 313 236 311 175 299 318 335 335 303 294 251 312 313 325 326 325 319 303 253 226 221 221 221 223 225 227 223 232 234 224 236 247 264 252 249 248 254 255 253 252 250 250 251 247 253 254
283 353 315 264 301 349 302 266 279 305 301 281 295 298 276 288 294 309 318 322 312 298 261 242 234 228 228 227 231 237 239 235 235 235 244 248 250 250 246 249 250 253 249 245 247 246 247 247 253
225 190 225 262 280 350 304 296 291 281 286 273 280 284 286 281 276 306 311 315 321 310 295 256 245 232 224 219 222 230 234 241 244 244 246 249 244 240 248 246 254 253 246 244 245 245 244 242 242
172 186 294 288 288 322 287 289 288 240 247 242 258 283 288 296 285 305 320 323 322 314 309 291 267 252 234 223 225 232 243 248 250 255 255 258 258 247 245 250 253 253 248 244 241 237 232 241 228
275 182 250 256 311 271 319 283 217 224 244 258 263 249 269 271 303 313 321 318 323 319 319 313 300 274 251 235 229 230 232 239 244 252 257 257 250 247 246 251 251 253 248 247 243 237 232 216 219
312 197 241 291 5 309 74 292 262 210 244 259 264 267 276 287 292 259 292 306 315 314 314 307 300 289 275 260 234 230 223 227 245 254 253 256 252 247 244 250 251 253 251 247 246 243 236 223 203
225 199 272 249 258 335 218 246 260 330 291 270 262 261 230 237 256 287 285 285 308 316 310 309 303 299 278 260 251 244 242 239 247 246 239 243 253 246 244 247 250 252 250 250 248 241 231 227 215
72 20 334 38 105 317 236 188 279 215 233 286 277 275 258 278 286 273 281 292 296 309 307 307 303 299 292 266 249 243 236 236 234 234 234 237 238 233 238 242 243 247 247 247 247 240 232 225 220
77 53 329 328 349 236 176 308 253 279 288 269 266 260 269 256 271 287 298 303 298 298 308 311 299 296 296 276 255 244 239 235 229 228 226 227 225 228 229 229 236 242 245 245 237 223 223 222 217
218 160 172 260 231 287 242 245 254 238 267 259 239 262 281 279 276 273 274 278 295 294 300 307 305 299 302 297 268 247 236 227 230 225 226 228 229 231 231 232 238 245 240 231 218 213 213 214 216
171 183 197 233 234 360 229 275 290 261 254 239 252 262 261 276 285 274 283 279 288 291 292 295 302 296 294 293 286 252 239 229 229 233 229 230 233 238 230 227 231 230 221 208 197 197 204 211 210
165 172 80 12 294 258 250 262 244 297 277 254 271 260 279 296 308 305 278 278 288 282 288 290 290 284 285 285 279 261 248 240 237 234 229 232 236 227 218 219 218 209 198 191 189 197 204 195 195
227 233 72 181 187 239 296 262 190 231 243 256 265 279 300 291 299 296 293 282 282 280 279 281 279 278 276 273 269 255 244 240 237 234 236 231 226 214 207 208 200 192 187 186 194 197 190 190 188
200 223 169 200 236 243 275 263 322 287 266 278 285 292 288 288 286 280 279 282 281 277 278 277 281 274 267 266 260 248 237 235 230 229 227 221 211 202 200 195 188 185 185 189 188 187 182 184 187